Volk, WI

7:52 AM CDT on July 24, 2017 (GMT -0500)
Volk

Weather History for KVOK - August, 2014

Change the Weather History Date:

Sunday, August 31, 2014

  Actual Average Record
Temperature  
Mean Temperature 70 °F -  
Max Temperature 84 °F 76 °F 86 °F (2008)
Min Temperature 57 °F 56 °F 44 °F (2006)
Cooling Degree Days 6    
Growing Degree Days 20 (Base 50)    
Moisture  
Dew Point 63 °F    
Average Humidity 96    
Maximum Humidity 100    
Minimum Humidity 62    
Precipitation  
Precipitation 0.00 in - - ()
Sea Level Pressure  
Sea Level Pressure 29.90 in    
Wind  
Wind Speed 3 mph (SSE)    
Max Wind Speed 14 mph    
Max Gust Speed -    
Visibility 5 miles    
Events Fog    
Averages and records for this station are not official NWS values.
T = Trace of Precipitation, MM = Missing Value Source: NWS Daily Summary

Daily Weather History Graph

Daily Weather History Graph

Search for Another Location

Airport or City:

Trip Planner

Search our weather history database for the weather conditions in past years. The results will help you decide how hot, cold, wet, or windy it might be!

Date:

Astronomy

Aug. 31, 2014 Rise Set
Actual Time 6:23 AM CDT 7:38 PM CDT
Civil Twilight 5:53 AM CDT 8:08 PM CDT
Nautical Twilight 5:17 AM CDT 8:43 PM CDT
Astronomical Twilight 4:39 AM CDT 9:21 PM CDT
Moon 12:22 PM CDT (8/31) 10:40 PM CDT (8/31)
Length of Visible Light 14h 14m
Length of Day
13h 15m
Waxing Crescent, 32% of the Moon is Illuminated
Aug 31
Waxing Crescent
Sep 2
First Quarter
Sep 8
Full
Sep 15
Last Quarter
Sep 24
New

Hourly Weather History & Observations

Time (CDT) Temp. Heat Index Dew Point Humidity Pressure Visibility Wind Dir Wind Speed Gust Speed Precip Events Conditions
12:08 AM 62.6 °F - 62.6 °F 100% 29.91 in 9.0 mi WNW 2.3 mph - N/A   Mostly Cloudy
12:58 AM 63.7 °F - 63.7 °F 100% 29.91 in 10.0 mi South 1.2 mph - N/A   Mostly Cloudy
1:08 AM 62.6 °F - 62.6 °F 100% 29.91 in 10.0 mi SW 2.3 mph - N/A   Scattered Clouds
1:38 AM 60.8 °F - 60.8 °F 100% 29.91 in 2.5 mi NW 1.2 mph - N/A   Clear
1:43 AM 60.8 °F - 60.8 °F 100% 29.91 in 1.2 mi Calm Calm - N/A   Clear
1:48 AM 60.8 °F - 60.8 °F 100% 29.91 in 0.8 mi Calm Calm - N/A   Clear
1:53 AM 59.0 °F - 59.0 °F 100% 29.91 in 0.5 mi Calm Calm - N/A Fog Fog
1:58 AM 59.2 °F - 59.2 °F 100% 29.90 in 0.5 mi Calm Calm - N/A Fog Fog
2:03 AM 59.0 °F - 59.0 °F 100% 29.91 in 0.8 mi Calm Calm - N/A   Clear
2:08 AM 60.8 °F - 60.8 °F 100% 29.91 in 1.5 mi SE 2.3 mph - N/A   Clear
2:13 AM 60.8 °F - 60.8 °F 100% 29.91 in 8.0 mi SSE 1.2 mph - N/A   Clear
2:23 AM 59.0 °F - 59.0 °F 100% 29.91 in 10.0 mi SSE 2.3 mph - N/A   Clear
2:38 AM 59.0 °F - 59.0 °F 100% 29.91 in 1.8 mi SE 3.5 mph - N/A   Clear
2:43 AM 59.0 °F - 59.0 °F 100% 29.92 in 1.5 mi SE 2.3 mph - N/A   Clear
2:48 AM 59.0 °F - 59.0 °F 100% 29.92 in 1.2 mi Calm Calm - N/A   Clear
2:53 AM 59.0 °F - 59.0 °F 100% 29.92 in 1.0 mi Calm Calm - N/A   Clear
2:58 AM 59.0 °F - 59.0 °F 100% 29.92 in 0.8 mi North 2.3 mph - N/A   Clear
3:08 AM 57.2 °F - 57.2 °F 100% 29.92 in 1.0 mi NNW 2.3 mph - N/A   Scattered Clouds
3:13 AM 57.2 °F - 57.2 °F 100% 29.93 in 0.8 mi West 3.5 mph - N/A   Partly Cloudy
3:28 AM 59.0 °F - 59.0 °F 100% 29.93 in 0.5 mi Calm Calm - N/A Fog Fog
3:33 AM 59.0 °F - 59.0 °F 100% 29.93 in 0.8 mi West 1.2 mph - N/A   Partly Cloudy
3:38 AM 59.0 °F - 59.0 °F 100% 29.93 in 1.0 mi West 3.5 mph - N/A   Clear
3:43 AM 59.0 °F - 59.0 °F 100% 29.93 in 1.2 mi West 2.3 mph - N/A   Clear
3:53 AM 59.0 °F - 59.0 °F 100% 29.93 in 1.5 mi Calm Calm - N/A   Clear
3:58 AM 59.0 °F - 59.0 °F 100% 29.93 in 2.5 mi Calm Calm - N/A   Clear
4:03 AM 59.0 °F - 59.0 °F 100% 29.93 in 3.0 mi Calm Calm - N/A   Clear
4:13 AM 59.0 °F - 59.0 °F 100% 29.93 in 9.0 mi Calm Calm - N/A   Scattered Clouds
4:18 AM 60.8 °F - 60.8 °F 100% 29.92 in 9.0 mi Calm Calm - N/A   Mostly Cloudy
4:43 AM 60.8 °F - 60.8 °F 100% 29.92 in 8.0 mi Calm Calm - N/A   Mostly Cloudy
4:48 AM 60.8 °F - 60.8 °F 100% 29.92 in 10.0 mi Calm Calm - N/A   Mostly Cloudy
4:53 AM 60.8 °F - 60.8 °F 100% 29.93 in 5.0 mi NW 2.3 mph - N/A   Mostly Cloudy
4:58 AM 60.4 °F - 60.4 °F 100% 29.93 in 4.0 mi NW 1.2 mph - N/A   Mostly Cloudy
4:59 AM 60.8 °F - 60.8 °F 100% 29.93 in 4.0 mi Calm Calm - N/A   Mostly Cloudy
5:04 AM 60.8 °F - 60.8 °F 100% 29.93 in 8.0 mi North 1.2 mph - N/A   Scattered Clouds
5:09 AM 60.8 °F - 60.8 °F 100% 29.93 in 9.0 mi Calm Calm - N/A   Scattered Clouds
5:14 AM 60.8 °F - 60.8 °F 100% 29.92 in 9.0 mi Calm Calm - N/A   Partly Cloudy
5:19 AM 60.8 °F - 60.8 °F 100% 29.92 in 10.0 mi East 1.2 mph - N/A   Scattered Clouds
5:29 AM 60.8 °F - 60.8 °F 100% 29.92 in 8.0 mi Calm Calm - N/A   Scattered Clouds
5:34 AM 60.8 °F - 60.8 °F 100% 29.92 in 10.0 mi SE 1.2 mph - N/A   Scattered Clouds
5:58 AM 60.1 °F - 60.1 °F 100% 29.92 in 2.5 mi SSE 3.5 mph - N/A   Scattered Clouds
6:03 AM 60.8 °F - 60.8 °F 100% 29.92 in 0.8 mi SSE 2.3 mph - N/A   Mist
6:08 AM 60.8 °F - 60.8 °F 100% 29.92 in 0.5 mi SE 2.3 mph - N/A Fog Fog
6:13 AM 59.0 °F - 59.0 °F 100% 29.91 in 0.2 mi SE 3.5 mph - N/A Fog Fog
6:58 AM 59.4 °F - 59.2 °F 99% 29.93 in 0.2 mi Calm Calm - N/A Fog Fog
7:08 AM 60.8 °F - 60.8 °F 100% 29.93 in 0.2 mi Calm Calm - N/A Fog Fog
7:33 AM 62.6 °F - 62.6 °F 100% 29.93 in 0.5 mi SE 1.2 mph - N/A Fog Fog
7:38 AM 62.6 °F - 62.6 °F 100% 29.93 in 0.5 mi ESE 2.3 mph - N/A Fog Fog
7:43 AM 62.6 °F - 62.6 °F 100% 29.93 in 0.2 mi ESE 2.3 mph - N/A Fog Fog
7:48 AM 62.6 °F - 62.6 °F 100% 29.93 in 0.2 mi ESE 3.5 mph - N/A Fog Fog
7:58 AM 62.8 °F - 62.8 °F 100% 29.94 in 0.2 mi ESE 5.8 mph - N/A Fog Fog
8:33 AM 64.4 °F - 64.4 °F 100% 29.92 in 0.2 mi ESE 4.6 mph - N/A Fog Fog
8:48 AM 64.4 °F - 64.4 °F 100% 29.92 in 0.5 mi SE 5.8 mph - N/A Fog Fog
8:53 AM 64.4 °F - 64.4 °F 100% 29.92 in 0.5 mi ESE 6.9 mph - N/A Fog Fog
8:58 AM 64.9 °F - 64.9 °F 100% 29.93 in 0.5 mi ESE 4.6 mph - N/A Fog Fog
9:03 AM 64.4 °F - 64.4 °F 100% 29.92 in 0.8 mi SE 5.8 mph - N/A   Mist
9:08 AM 66.2 °F - 66.2 °F 100% 29.92 in 1.2 mi SE 5.8 mph - N/A   Overcast
9:13 AM 66.2 °F - 66.2 °F 100% 29.93 in 3.0 mi SSE 5.8 mph - N/A   Overcast
9:53 AM 66.2 °F - 66.2 °F 100% 29.92 in 10.0 mi SSE 8.1 mph - N/A   Overcast
9:58 AM 66.6 °F - 66.6 °F 100% 29.93 in 10.0 mi SSE 8.1 mph - N/A   Overcast
10:13 AM 68.0 °F - 68.0 °F 100% 29.91 in 10.0 mi SSE 9.2 mph - N/A   Overcast
10:33 AM 68.0 °F - 68.0 °F 100% 29.92 in 10.0 mi SSE 6.9 mph - N/A   Overcast
10:43 AM 69.8 °F - 69.8 °F 100% 29.91 in 10.0 mi SE 6.9 mph - N/A   Mostly Cloudy
10:53 AM 71.6 °F - 71.6 °F 100% 29.91 in 10.0 mi ESE 8.1 mph - N/A   Mostly Cloudy
10:58 AM 71.6 °F - 71.6 °F 100% 29.91 in 10.0 mi Variable 5.8 mph - N/A   Scattered Clouds
11:58 AM 76.8 °F - 70.9 °F 82% 29.90 in 10.0 mi Variable 5.8 mph - N/A   Partly Cloudy
12:58 PM 78.8 °F - 71.6 °F 78% 29.88 in 10.0 mi South 10.4 mph - N/A   Scattered Clouds
1:58 PM 82.4 °F 87.2 °F 71.6 °F 70% 29.86 in 10.0 mi South 9.2 mph - N/A   Scattered Clouds
2:58 PM 82.4 °F 86.3 °F 69.8 °F 66% 29.83 in 10.0 mi SSE 10.4 mph - N/A   Scattered Clouds
3:58 PM 84.2 °F 88.4 °F 69.8 °F 62% 29.82 in 10.0 mi SSE 13.8 mph - N/A   Scattered Clouds
4:58 PM 84.2 °F 88.4 °F 69.8 °F 62% 29.81 in 10.0 mi SSE 12.7 mph - N/A   Mostly Cloudy
5:58 PM 80.6 °F 83.9 °F 69.8 °F 70% 29.80 in 10.0 mi SE 10.4 mph - N/A   Mostly Cloudy
6:58 PM 78.8 °F - 71.6 °F 78% 29.79 in 10.0 mi SSE 6.9 mph - N/A   Mostly Cloudy
7:58 PM 75.2 °F - 69.8 °F 83% 29.77 in 10.0 mi SSE 5.8 mph - N/A   Mostly Cloudy
8:58 PM 73.9 °F - 71.4 °F 92% 29.76 in 10.0 mi SE 6.9 mph - N/A   Clear
9:58 PM 74.3 °F - 70.7 °F 88% 29.76 in 10.0 mi SE 5.8 mph - N/A   Partly Cloudy
10:58 PM 76.1 °F - 70.0 °F 81% 29.75 in 10.0 mi SSE 9.2 mph - N/A   Partly Cloudy
11:58 PM 75.2 °F - 70.5 °F 85% 29.73 in 10.0 mi South 9.2 mph - N/A   Mostly Cloudy